Location: Gull Harbor
(47.1000°N, 122.9000°W)
Time: 00:03:51
(UTC-07:00)

Tiangong - Pass Details

Date: 20 April 2024
Orbit: 372 x 376 km, 41.5° (Epoch: 19 May)

Event Time Altitude Azimuth Distance (km) Brightness Sun altitude
Rises 21:23:55 0° 248° (WSW) 2,257 2.3 -12.4°
Reaches altitude 10° 21:26:09 10° 236° (SW) 1,399 1.0 -12.7°
Maximum altitude 21:28:55 28° 175° (S) 754 -1.0 -13.1°
Enters shadow 21:29:43 24° 147° (SSE) 828 -1.0 -13.2°
